User: anonymous
Location: Muenchen
(48.1800°N, 11.5800°E)
Time: 12:12:55
(UTC+02:00)
Language:

Cosmos 2233 Rocket - Orbit

View from above orbital plane
View from above orbital plane
View from above satellite
View from above satellite

Ground track
Ground track

The orbit data is extracted from the following two-line orbital elements,

1 22488U 93008B   14264.07752964 -.00000040  00000-0 -55893-4 0  9575
2 22488 082.9394 102.6545 0026456 146.2065 006.3043 13.77636661 86557
Epoch (UTC): 21 September 2014 01:51:38
Eccentricity: 0.0026456
inclination: 82.9394°
perigee height: 953 km
apogee height: 992 km
right ascension of ascending node: 102.6545°
argument of perigee: 146.2065°
revolutions per day: 13.77636661
mean anomaly at epoch: 6.3043°
orbit number at epoch: 8655

The dashed part of the orbit path shows where the satellite is in the earth's shadow,  

DLR